Debrecen, Hungary

11:09 PM CET on December 06, 2016 (GMT +0100)
Debrecen

Weather History for LHDC - January, 2013

Change the Weather History Date:

Sunday, January 6, 2013

  Actual Average Record
Temperature  
Mean Temperature 34 °F -  
Max Temperature 38 °F - - ()
Min Temperature 31 °F - - ()
Degree Days  
Heating Degree Days 30    
Moisture  
Dew Point 24 °F    
Average Humidity 64    
Maximum Humidity 80    
Minimum Humidity 36    
Precipitation  
Precipitation 0.00 in - - ()
Sea Level Pressure  
Sea Level Pressure 30.10 in    
Wind  
Wind Speed 6 mph ()    
Max Wind Speed 13 mph    
Max Gust Speed 23 mph    
Visibility 6.8 miles    
Events      
T = Trace of Precipitation, MM = Missing Value Source: Averaged Metar Reports

Daily Weather History Graph

Daily Weather History Graph

Search for Another Location

Airport or City:

Trip Planner

Search our weather history database for the weather conditions in past years. The results will help you decide how hot, cold, wet, or windy it might be!

Date:

Astronomy

Jan. 06, 2013 Rise Set
Actual Time 7:20 AM CET 3:58 PM CET
Civil Twilight 6:45 AM CET 4:33 PM CET
Nautical Twilight 6:06 AM CET 5:12 PM CET
Astronomical Twilight 5:29 AM CET 5:49 PM CET
Moon 1:02 AM CET 11:22 AM CET
Length of Visible Light 9h 48m
Length of Day
8h 37m
Waning Crescent, 36% of the Moon is Illuminated
Jan 6
Waning Crescent
Jan 11
New
Jan 19
First Quarter
Jan 27
Full
Feb 3
Last Quarter

Hourly Weather History & Observations

Time (CET) Temp. Windchill Dew Point Humidity Pressure Visibility Wind Dir Wind Speed Gust Speed Precip Events Conditions
5:45 AM 35.6 °F 30.7 °F 28.4 °F 75% 30.12 in 6.2 mi North 5.8 mph - N/A   Mostly Cloudy
6:00 AM - - - N/A% - 6.2 mi North 11.5 mph 23.0 mph N/A   Mostly Cloudy
6:15 AM 35.6 °F 29.9 °F 26.6 °F 70% 30.12 in 6.2 mi North 6.9 mph - N/A   Mostly Cloudy
6:45 AM 33.8 °F 29.6 °F 26.6 °F 75% 30.12 in 6.2 mi North 4.6 mph - N/A   Mostly Cloudy
7:00 AM 34 °F - 27 °F 68% 30.15 in 12 mi North 4.5 mph - -   Partly Cloudy
7:15 AM 33.8 °F 29.6 °F 26.6 °F 75% 30.15 in 6.2 mi NNW 4.6 mph - N/A   Mostly Cloudy
7:45 AM 35.6 °F 29.9 °F 26.6 °F 70% 30.15 in 6.2 mi North 6.9 mph - N/A   Mostly Cloudy
8:15 AM 33.8 °F 29.6 °F 26.6 °F 75% 30.15 in 6.2 mi North 4.6 mph - N/A   Mostly Cloudy
8:45 AM 35.6 °F 29.9 °F 26.6 °F 70% 30.15 in 6.2 mi North 6.9 mph - N/A   Mostly Cloudy
9:00 AM - - - N/A% - 3.1 mi North 9.2 mph - N/A   Overcast
9:15 AM 35.6 °F 31.7 °F 24.8 °F 65% 30.15 in 6.2 mi NNW 4.6 mph - N/A   Mostly Cloudy
9:45 AM 37.4 °F 30.8 °F 23.0 °F 56% 30.15 in 6.2 mi North 9.2 mph - N/A   Mostly Cloudy
10:15 AM 35.6 °F 27.1 °F 21.2 °F 56% 30.15 in 6.2 mi North 12.7 mph - N/A   Scattered Clouds
10:45 AM 35.6 °F 27.5 °F 21.2 °F 56% 30.12 in 6.2 mi NNE 11.5 mph - N/A   Scattered Clouds
11:15 AM 37.4 °F 30.3 °F 21.2 °F 52% 30.12 in 6.2 mi North 10.4 mph - N/A   Scattered Clouds
11:45 AM 37.4 °F 30.3 °F 21.2 °F 52% 30.12 in 6.2 mi North 10.4 mph - N/A   Scattered Clouds
12:00 PM - - - N/A% - 5.0 mi North 10.4 mph - N/A   Unknown
12:15 PM 37.4 °F 30.3 °F 21.2 °F 52% 30.09 in 6.2 mi North 10.4 mph - N/A   Mostly Cloudy
12:45 PM 37.4 °F 30.8 °F 19.4 °F 48% 30.09 in 6.2 mi NNW 9.2 mph - N/A   Mostly Cloudy
1:00 PM 37 °F - 20 °F 36% 30.11 in 19 mi NNW 8.9 mph - -   Partly Cloudy
1:15 PM 37.4 °F 32.1 °F 21.2 °F 52% 30.09 in 6.2 mi NNW 6.9 mph - N/A   Mostly Cloudy
1:45 PM 35.6 °F 29.9 °F 21.2 °F 56% 30.06 in 6.2 mi NW 6.9 mph - N/A   Mostly Cloudy
2:15 PM 35.6 °F 32.8 °F 23.0 °F 60% 30.06 in 6.2 mi NW 3.5 mph - N/A   Mostly Cloudy
2:45 PM 35.6 °F 32.8 °F 24.8 °F 65% 30.06 in 6.2 mi WNW 3.5 mph - N/A   Mostly Cloudy
3:15 PM 35.6 °F 31.7 °F 24.8 °F 65% 30.04 in - NW 4.6 mph - N/A   Clear
3:45 PM 33.8 °F 29.6 °F 26.6 °F 75% 30.04 in - West 4.6 mph - N/A   Clear
4:15 PM 33.8 °F 30.8 °F 26.6 °F 75% 30.04 in - WSW 3.5 mph - N/A   Clear
4:45 PM 32.0 °F 28.7 °F 26.6 °F 80% 30.01 in - SW 3.5 mph - N/A   Clear
5:00 PM - - - N/A% - - North - - N/A   Unknown
7:00 PM 31 °F - 27 °F 80% 30.01 in - SW 4.5 mph - -